This is the latest recevied weather packets stored in our database for station/object 7M1JBF-11. If no packets are shown the sender has not sent any weather packets the latest 10 day(s).
| Time | Temp. | Humidity | Pressure | Rain* | Wind** | Luminosity | Snow |
|---|---|---|---|---|---|---|---|
| 1777863250 | 27.78° C | 100% | 995.7 hPa | 3.05 mm | - | - | - |
| 1777860845 | 29.44° C | 100% | 995.7 hPa | 3.05 mm | - | - | - |
| 1777860243 | 29.44° C | 100% | 995.9 hPa | 3.05 mm | - | - | - |
| 1777859642 | 29.44° C | 100% | 996.2 hPa | 3.05 mm | - | - | - |
| 1777859041 | 28.89° C | 100% | 996.3 hPa | 3.05 mm | - | - | - |
| 1777858439 | 28.33° C | 100% | 996.1 hPa | 3.05 mm | - | - | - |
| 1777857838 | 28.33° C | 100% | 996.2 hPa | 3.05 mm | - | - | - |
| 1777857237 | 27.78° C | 100% | 996.5 hPa | 3.05 mm | - | - | - |
| 1777856635 | 27.22° C | 100% | 996.4 hPa | 3.05 mm | - | - | - |
| 1777856034 | 26.11° C | 100% | 996.6 hPa | 3.05 mm | - | - | - |
| 1777855432 | 25° C | 100% | 996.8 hPa | 3.05 mm | - | - | - |
| 1777854831 | 23.89° C | 100% | 996.9 hPa | 3.05 mm | - | - | - |
| 1777854230 | 23.33° C | 100% | 996.9 hPa | 3.05 mm | - | - | - |
| 1777853022 | 22.22° C | 100% | 996.7 hPa | 3.05 mm | - | - | - |
| 1777852421 | 21.11° C | 100% | 996.9 hPa | 3.05 mm | - | - | - |
| 1777851819 | 21.11° C | 100% | 996.8 hPa | 3.05 mm | - | - | - |
| 1777851218 | 20.56° C | 100% | 997.1 hPa | 3.05 mm | - | - | - |
| 1777850616 | 21.11° C | 100% | 996.9 hPa | 3.05 mm | - | - | - |
| 1777850015 | 21.11° C | 100% | 997.1 hPa | 3.05 mm | - | - | - |
| 1777849414 | 21.11° C | 100% | 997.1 hPa | 3.05 mm | - | - | - |
| 1777848812 | 21.67° C | 100% | 997 hPa | 3.05 mm | - | - | - |
| 1777848211 | 21.67° C | 100% | 997 hPa | 3.05 mm | - | - | - |
| 1777847610 | 22.22° C | 100% | 997 hPa | 3.05 mm | - | - | - |
| 1777847008 | 22.22° C | 100% | 996.6 hPa | 3.05 mm | - | - | - |
| 1777846407 | 21.67° C | 100% | 996.2 hPa | 3.05 mm | - | - | - |
* Rain since midnight (hover to see other rain measurements)
** Current wind speed in m/s (hover to see current wind gust speed)